User: anonymous   Login
Location: Lecco
(45.8566°N, 9.3977°E)
Time: 12:29:40
(UTC+02:00)
Language:

Vanguard 2 - Orbit

View from above orbital plane
View from above orbital plane
View from above satellite
View from above satellite

Ground track
Ground track

The orbit data is extracted from the following two-line orbital elements,

1    11U 59001A   20219.95311014 -.00000055 +00000-0 -42187-4 0  9993
2    11 032.8664 225.7796 1468164 176.5696 184.6341 11.85686359280976
Epoch (UTC): 06 August 2020 22:52:28
Eccentricity: 0.1468164
inclination: 32.8664°
perigee height: 553 km
apogee height: 2938 km
right ascension of ascending node: 225.7796°
argument of perigee: 176.5696°
revolutions per day: 11.85686359
mean anomaly at epoch: 184.6341°
orbit number at epoch: 28097

The dashed part of the orbit path shows where the satellite is in the earth's shadow,  

DLR